Wind_Speed
39 46 42 42 39 38 42 46 50 47 39 44 42 46 50 53 54 51 54 58 63 67 67 68 68 64 61 62 67 70 69 65 63 65 67 69 71 69 71 72 72 73 73
47 48 40 44 45 45 41 38 39 37 39 44 48 52 53 50 51 55 60 64 67 66 65 62 60 61 65 68 67 64 67 67 67 68 69 70 70 71 71 72 73 73 72
54 44 47 42 36 39 39 36 35 41 47 49 50 49 49 53 57 61 63 64 62 60 59 60 64 66 66 64 66 68 71 70 70 70 70 72 73 74 72 71 70 68 66
39 36 38 39 39 33 34 39 44 45 46 46 46 50 54 59 62 60 60 59 57 58 61 66 66 64 66 67 72 74 72 71 72 72 73 74 72 70 68 67 66 68 69
33 36 34 35 34 37 40 42 45 44 44 47 51 56 59 60 60 60 56 55 59 64 66 65 64 68 70 73 73 73 74 75 75 74 71 69 68 68 69 71 73 77 81
30 29 31 34 36 40 42 43 42 44 48 53 56 58 59 57 57 53 56 60 64 66 64 67 69 71 72 73 75 76 78 77 72 69 69 71 73 76 80 84 87 90 92
29 32 34 37 38 40 40 41 44 48 53 56 56 54 53 52 53 58 62 64 64 65 68 70 72 73 75 77 77 76 72 71 71 73 76 80 83 87 90 93 96 99 102
30 34 36 36 36 38 41 45 49 53 54 52 51 49 50 53 58 61 62 63 66 69 70 71 75 77 78 78 73 69 70 73 76 81 83 87 91 94 97 100 102 104 107
32 31 33 35 37 41 45 49 52 51 49 46 47 49 54 58 60 60 62 65 69 70 72 76 78 78 77 73 70 72 76 79 83 88 90 93 96 100 105 107 109 109 108
29 31 34 37 41 45 48 48 48 45 44 46 51 56 59 59 61 63 66 67 69 73 77 77 78 77 73 74 76 80 84 87 91 92 95 100 104 106 108 109 108 105 102
30 34 39 43 45 45 44 41 41 43 47 52 57 58 57 60 64 67 69 71 75 77 77 76 75 75 76 79 84 88 90 93 97 101 104 106 107 107 106 102 101 101 99
36 39 45 46 43 40 38 39 45 48 51 56 55 57 60 65 68 70 73 76 77 76 76 74 74 77 82 87 89 92 97 101 104 105 107 106 104 101 100 100 100 100 101
42 43 38 37 37 37 40 45 50 52 52 54 58 60 65 69 70 73 75 76 76 74 74 76 80 84 87 90 95 99 102 105 106 106 103 100 100 100 102 102 102 100 95
33 32 33 35 36 40 45 50 49 51 55 56 61 65 69 71 73 74 74 74 73 74 77 81 84 87 92 96 100 103 105 105 103 100 100 101 103 103 102 100 94 88 81
33 32 34 37 42 47 49 48 51 53 56 61 65 68 70 72 72 73 73 72 74 78 81 84 89 95 98 100 102 102 101 99 99 101 104 104 101 96 90 86 82 78 74
31 36 40 43 43 45 48 49 51 56 61 65 66 68 68 69 69 69 70 74 77 80 85 90 94 97 100 101 101 98 99 102 104 103 99 93 87 82 78 73 70 66 63
38 37 39 42 44 48 50 52 57 62 64 64 64 66 66 65 66 69 73 76 80 85 91 94 97 99 101 99 97 99 102 102 97 90 84 79 73 69 66 64 62 61 58
38 40 43 46 48 50 52 57 61 61 61 62 63 62 62 65 69 72 75 80 86 91 94 97 99 99 96 94 98 98 92 87 79 73 68 65 63 62 61 60 59 57 54
42 44 45 47 49 52 57 58 58 59 61 59 59 61 64 68 71 74 79 85 90 94 96 97 95 91 93 95 91 84 73 65 59 57 56 55 54 54 56 54 52 50 48
43 44 47 49 53 55 56 56 58 57 56 58 61 65 67 69 74 80 86 89 92 95 94 89 88 91 89 84 71 58 53 52 52 53 54 54 55 56 55 55 53 52 48
45 48 50 52 52 53 55 54 52 53 56 61 64 65 68 74 80 84 87 92 94 90 85 86 88 85 77 58 50 50 52 54 53 54 55 56 56 55 56 55 54 55 53
49 49 49 50 50 48 46 48 51 57 60 62 65 70 75 78 82 85 91 92 87 83 83 84 80 71 53 49 48 48 50 52 53 55 56 57 57 57 56 54 54 53 54
46 45 44 41 41 43 46 52 57 60 62 65 69 73 76 80 84 89 90 84 81 82 83 76 66 49 47 47 43 45 48 50 52 54 56 57 58 57 55 54 52 51 51
40 37 36 39 42 48 52 56 58 59 63 66 70 74 79 83 87 89 84 79 80 81 75 68 48 43 45 42 41 45 49 51 53 55 57 58 58 57 55 53 51 50 49
33 36 38 44 48 51 53 54 56 59 64 69 73 78 82 85 87 84 78 78 79 75 66 52 41 42 39 37 41 46 51 54 55 56 58 59 58 57 55 52 50 47 46
35 39 44 48 50 52 54 55 58 63 67 71 76 81 83 86 84 77 76 78 75 65 59 46 38 40 37 39 43 47 52 55 57 59 59 60 59 57 54 51 48 43 42
Wind_Direction
242 265 266 272 260 271 276 280 280 276 283 285 294 297 296 297 298 297 299 299 299 301 305 306 305 305 305 305 305 304 305 305 304 302 299 298 298 297 297 298 298 296 295
254 257 278 258 267 278 279 275 277 281 287 293 293 294 296 295 297 299 300 300 304 307 307 306 307 306 306 307 307 307 306 303 302 300 301 301 300 300 299 298 297 296 296
258 266 263 260 275 276 279 281 284 285 287 290 292 293 294 297 299 299 302 306 308 307 306 306 306 307 308 308 307 305 305 305 304 303 303 303 302 302 301 301 300 299 298
255 255 257 269 275 277 279 283 287 287 289 290 292 295 297 296 298 305 308 309 307 306 306 307 308 307 307 305 304 306 307 306 305 306 306 305 305 305 304 303 301 300 298
253 261 263 267 271 276 281 284 286 287 288 291 294 294 296 302 308 308 307 306 307 308 308 307 306 305 305 306 307 308 309 308 308 309 307 307 307 305 304 302 302 301 300
247 257 262 269 276 281 282 283 283 288 290 292 295 299 303 305 305 304 306 308 308 307 306 305 306 307 308 309 309 312 311 310 310 309 309 309 308 306 306 305 304 303 302
257 265 271 276 279 279 280 283 286 288 292 296 301 302 303 304 305 307 308 307 307 307 306 308 309 310 311 311 313 313 312 312 311 310 310 308 308 307 307 308 307 306 305
269 273 275 275 276 278 282 285 288 292 299 302 302 303 304 305 307 307 307 309 307 307 309 310 311 313 313 314 314 313 311 311 310 309 309 309 309 308 308 308 306 305 304
267 270 271 272 277 282 285 290 295 300 302 301 303 304 305 307 308 308 308 307 307 310 312 314 315 314 314 314 312 310 310 310 309 310 310 310 309 308 307 307 306 305 304
264 270 276 281 285 290 295 299 301 302 300 302 305 306 307 307 307 307 307 308 312 313 315 315 314 313 313 311 311 311 310 311 311 311 311 310 309 308 307 307 307 307 306
276 281 282 286 293 297 298 301 301 301 303 305 305 306 306 305 306 308 312 314 314 314 314 314 314 314 312 312 311 312 312 313 313 312 311 310 309 308 309 309 309 309 308
281 286 290 294 296 297 296 301 301 302 303 303 305 305 304 307 310 313 313 312 313 313 314 313 313 313 312 312 313 314 314 314 312 311 310 311 311 311 310 310 309 310 310
290 294 298 298 297 301 302 302 303 303 303 303 302 303 308 311 311 311 312 313 314 314 313 313 313 313 314 315 315 314 313 312 312 313 313 312 312 311 311 310 310 309 310
297 294 295 297 299 299 302 304 303 302 302 302 305 309 310 310 311 312 314 314 315 315 314 315 314 315 316 315 315 314 314 314 314 314 313 312 312 311 310 310 310 309 309
293 297 298 298 299 301 303 302 301 301 303 307 309 310 310 311 313 315 315 315 314 314 314 315 317 317 316 315 315 316 316 315 314 313 313 312 311 311 311 311 311 311 312
301 303 302 301 301 300 300 300 303 306 309 310 309 310 311 313 315 315 313 313 315 316 317 318 317 316 317 317 317 317 316 315 314 314 313 313 313 312 312 312 312 314 316
305 303 301 300 299 300 301 303 306 308 309 310 311 312 315 315 312 313 314 316 317 319 319 318 318 318 318 318 318 317 315 315 315 315 315 316 317 318 318 317 316 316 317
303 302 301 301 302 302 302 305 309 312 312 313 315 315 313 313 314 315 317 318 319 320 320 319 319 319 319 319 317 317 317 318 318 319 322 324 325 324 322 320 319 319 319
303 303 304 305 305 305 308 312 314 314 316 315 313 314 314 315 317 318 319 320 321 321 320 320 320 320 319 319 320 322 324 326 331 334 335 336 338 340 341 337 334 330 326
306 308 309 311 312 314 314 315 317 316 315 315 315 316 317 318 320 321 321 321 321 321 321 321 321 321 322 324 328 335 343 348 348 345 344 344 343 343 343 345 343 341 338
309 314 316 316 314 315 317 317 316 316 315 316 317 318 319 322 322 322 322 322 322 322 323 323 324 325 327 335 343 347 346 342 341 341 343 344 344 345 345 345 346 346 346
316 316 314 314 316 317 317 316 317 318 319 319 320 321 322 322 322 322 323 324 324 324 325 326 327 329 335 343 344 345 343 342 344 345 344 344 344 345 346 345 345 346 349
313 313 316 317 317 318 320 321 321 321 320 320 321 323 323 322 323 324 326 325 324 326 328 329 331 335 338 338 343 347 343 343 345 346 346 345 344 344 345 346 345 345 347
317 319 317 318 322 323 321 320 320 320 320 321 325 325 324 325 326 327 327 325 327 328 329 330 333 333 336 341 343 343 343 344 344 343 343 344 343 344 345 345 345 344 345
318 319 323 324 322 320 319 320 320 320 323 327 327 326 326 327 328 328 326 327 328 329 329 331 331 332 337 338 340 340 341 342 343 343 343 342 341 341 343 345 345 344 343
322 323 323 321 320 321 321 321 322 325 329 329 328 327 328 329 329 326 327 329 330 328 330 326 325 335 334 333 337 340 341 342 342 342 342 341 341 340 342 343 343 341 340
Height
5738 5738 5738 5738 5735 5735 5733 5731 5728 5725 5722 5719 5716 5713 5710 5705 5701 5696 5691 5685 5678 5671 5665 5658 5652 5645 5637 5629 5622 5614 5607 5600 5594 5584 5574 5567 5559 5553 5545 5538 5530 5523 5515
5726 5728 5727 5727 5728 5725 5723 5721 5718 5716 5714 5711 5708 5704 5699 5695 5689 5683 5677 5671 5664 5658 5651 5645 5637 5631 5623 5614 5607 5599 5590 5581 5575 5568 5558 5550 5542 5534 5527 5518 5510 5502 5495
5719 5716 5717 5718 5717 5715 5713 5711 5709 5708 5705 5702 5698 5693 5689 5683 5676 5670 5665 5658 5652 5645 5638 5630 5624 5616 5608 5600 5591 5581 5573 5565 5556 5548 5540 5530 5521 5513 5506 5498 5491 5483 5476
5706 5708 5709 5708 5707 5706 5704 5703 5702 5699 5695 5691 5687 5682 5676 5670 5665 5659 5652 5646 5639 5632 5625 5617 5609 5600 5592 5583 5573 5563 5555 5546 5536 5527 5517 5508 5499 5492 5486 5480 5475 5465 5458
5699 5701 5700 5699 5699 5697 5698 5696 5692 5688 5685 5681 5676 5671 5665 5658 5652 5646 5640 5634 5627 5619 5611 5602 5593 5584 5575 5565 5555 5544 5535 5525 5514 5506 5496 5488 5480 5473 5467 5460 5453 5445 5436
5693 5693 5693 5693 5692 5691 5688 5685 5683 5679 5676 5672 5665 5659 5652 5645 5640 5635 5629 5621 5613 5604 5594 5585 5576 5568 5558 5547 5536 5525 5513 5501 5493 5484 5476 5468 5459 5451 5443 5433 5423 5414 5409
5686 5686 5685 5684 5683 5682 5680 5677 5674 5669 5664 5659 5653 5646 5641 5636 5630 5622 5615 5607 5597 5587 5578 5569 5559 5550 5538 5527 5518 5506 5493 5483 5473 5463 5455 5444 5435 5422 5414 5405 5391 5381 5368
5678 5678 5678 5677 5676 5674 5671 5667 5662 5657 5653 5647 5640 5636 5631 5624 5617 5609 5600 5590 5581 5573 5564 5554 5543 5530 5519 5510 5500 5488 5478 5466 5454 5444 5432 5420 5406 5392 5379 5369 5358 5349 5333
5671 5671 5671 5670 5667 5664 5660 5655 5650 5645 5641 5636 5630 5624 5618 5611 5603 5594 5586 5577 5568 5557 5546 5535 5523 5511 5500 5490 5483 5471 5460 5449 5435 5422 5407 5393 5378 5362 5346 5335 5322 5310 5301
5665 5665 5664 5660 5657 5654 5649 5643 5640 5635 5630 5625 5618 5612 5605 5596 5589 5581 5573 5563 5552 5541 5529 5517 5505 5494 5483 5472 5463 5451 5440 5429 5413 5401 5387 5370 5352 5334 5317 5301 5287 5275 5258
5657 5655 5653 5651 5646 5641 5638 5634 5630 5625 5619 5613 5608 5599 5591 5584 5575 5566 5555 5545 5536 5524 5512 5501 5489 5477 5467 5454 5442 5429 5415 5402 5388 5372 5358 5343 5328 5309 5291 5273 5256 5242 5230
5650 5647 5646 5642 5637 5633 5629 5625 5621 5615 5608 5601 5594 5586 5579 5570 5560 5548 5539 5529 5519 5507 5495 5484 5474 5462 5450 5436 5421 5405 5391 5376 5361 5346 5330 5314 5299 5282 5265 5248 5230 5217 5196
5643 5639 5634 5630 5627 5623 5619 5615 5609 5603 5597 5590 5582 5573 5564 5554 5544 5534 5523 5512 5502 5489 5479 5468 5457 5444 5431 5415 5398 5382 5367 5351 5335 5318 5302 5286 5270 5255 5238 5224 5206 5192 5180
5630 5628 5625 5622 5619 5615 5610 5605 5599 5593 5585 5578 5570 5560 5549 5539 5529 5518 5507 5496 5486 5473 5462 5450 5438 5424 5409 5394 5377 5357 5340 5324 5308 5293 5278 5262 5245 5229 5211 5194 5181 5168 5159
5624 5621 5618 5614 5610 5605 5600 5595 5588 5581 5574 5565 5556 5546 5535 5525 5513 5502 5491 5480 5472 5459 5446 5432 5418 5403 5386 5369 5350 5331 5313 5297 5283 5268 5251 5236 5220 5203 5187 5171 5156 5145 5133
5617 5614 5610 5606 5600 5595 5589 5583 5576 5568 5560 5551 5542 5532 5522 5511 5500 5489 5478 5464 5454 5442 5428 5413 5397 5380 5363 5346 5329 5311 5290 5273 5257 5242 5224 5209 5197 5182 5169 5154 5138 5127 5119
5608 5604 5600 5595 5589 5583 5577 5570 5562 5554 5545 5536 5527 5517 5507 5496 5486 5475 5464 5449 5436 5424 5409 5392 5375 5359 5341 5323 5306 5289 5273 5253 5235 5219 5202 5188 5176 5163 5150 5137 5126 5114 5106
5599 5594 5589 5584 5578 5572 5565 5557 5549 5540 5532 5523 5513 5503 5492 5482 5471 5459 5447 5433 5418 5402 5386 5369 5353 5336 5319 5304 5287 5270 5251 5233 5217 5201 5186 5172 5161 5150 5138 5126 5114 5103 5094
5587 5583 5578 5573 5566 5559 5552 5544 5535 5526 5517 5508 5499 5490 5479 5468 5456 5444 5432 5418 5401 5383 5366 5348 5333 5317 5301 5284 5266 5249 5234 5219 5204 5191 5178 5165 5153 5141 5129 5116 5105 5094 5082
5576 5571 5566 5559 5553 5546 5538 5530 5521 5513 5505 5496 5487 5477 5466 5454 5441 5426 5412 5396 5381 5365 5349 5332 5316 5300 5283 5266 5250 5236 5223 5211 5198 5186 5173 5161 5148 5136 5124 5112 5100 5087 5076
5565 5559 5553 5547 5540 5533 5525 5518 5510 5502 5493 5484 5473 5462 5452 5439 5425 5410 5395 5379 5363 5346 5331 5315 5298 5281 5266 5253 5241 5230 5218 5206 5195 5182 5169 5156 5144 5132 5119 5108 5097 5084 5071
5554 5548 5542 5535 5529 5522 5515 5507 5499 5490 5480 5469 5459 5448 5435 5422 5408 5393 5377 5360 5343 5329 5315 5299 5281 5268 5256 5246 5236 5224 5213 5202 5189 5177 5164 5153 5141 5129 5118 5106 5095 5082 5070
5543 5537 5531 5525 5518 5511 5504 5495 5486 5477 5468 5458 5446 5434 5421 5406 5391 5375 5359 5342 5327 5312 5297 5282 5269 5257 5248 5239 5230 5220 5208 5196 5185 5174 5162 5150 5138 5127 5116 5104 5093 5082 5070
5533 5527 5522 5516 5508 5500 5492 5484 5476 5466 5456 5446 5434 5420 5405 5389 5373 5357 5341 5326 5312 5297 5284 5271 5260 5251 5241 5231 5222 5212 5202 5191 5180 5169 5158 5147 5136 5124 5113 5102 5091 5079 5068
5524 5518 5512 5506 5499 5491 5482 5473 5463 5454 5443 5430 5417 5403 5387 5372 5356 5340 5326 5312 5297 5283 5270 5259 5251 5243 5234 5225 5215 5205 5195 5185 5174 5164 5153 5142 5131 5120 5109 5099 5088 5078 5068
5516 5510 5504 5496 5488 5479 5469 5460 5451 5440 5427 5414 5401 5387 5372 5357 5341 5325 5311 5297 5283 5269 5258 5249 5242 5234 5226 5217 5208 5198 5188 5178 5167 5156 5146 5135 5125 5114 5105 5096 5086 5077 5068